CAPE
1485 1396 1286 1214 1298 1171 951 762 591 491 405 300 575 275 133 444 581 234 200 327 355 223 430 417 252 49 27 42 72 39 18 0 0 0 0 8 17 7 7 4 10 7 14
1497 1486 1387 1262 1205 1150 933 663 556 445 298 168 660 602 458 430 400 222 109 202 205 146 104 113 396 238 73 48 55 37 3 0 0 0 0 8 9 10 5 6 4 5 5
1406 1421 1524 1346 1305 1132 927 652 504 391 201 198 564 471 661 384 351 318 141 124 0 0 13 45 253 310 270 114 47 34 11 0 0 0 0 4 4 8 3 9 6 6 4
1361 1352 1364 1410 1254 1123 923 784 550 449 216 375 632 507 518 397 416 331 153 71 73 35 0 0 91 117 223 238 139 55 10 0 1 3 0 0 2 3 3 6 4 5 4
1439 1279 1358 1344 1183 1110 973 823 631 575 420 474 602 535 458 448 376 323 142 105 39 27 0 0 0 29 139 186 107 111 65 13 1 3 2 0 1 5 12 8 7 5 6
1094 1293 1418 1309 1238 1162 983 847 746 577 613 627 675 465 356 467 423 439 288 157 16 15 1 0 0 0 2 23 20 52 116 72 34 11 0 2 0 1 6 5 6 6 7
560 1028 1346 1266 1330 1176 1097 892 753 653 597 450 336 332 361 432 450 380 405 282 65 7 0 0 0 0 0 0 15 26 79 63 20 13 8 2 0 0 0 3 6 8 9
305 598 1043 1266 1355 1263 1045 882 741 638 587 417 389 452 343 376 406 450 339 257 162 108 45 0 0 0 0 0 0 6 11 65 20 10 10 5 0 0 0 0 2 2 5
9 379 726 1186 1223 1237 1049 896 775 644 602 381 374 374 112 63 238 237 182 147 135 153 124 79 10 0 0 0 0 0 0 0 3 27 20 5 0 0 0 0 0 0 1
0 4 401 787 974 1044 1059 919 755 617 557 467 373 359 67 16 82 122 128 139 72 111 86 87 68 22 0 0 0 0 0 0 0 3 28 18 9 2 0 0 0 4 0
0 0 0 207 749 959 1122 979 813 653 629 531 586 436 143 29 14 3 0 145 98 108 73 67 100 91 49 22 0 0 0 0 0 0 0 29 18 6 1 0 0 0 1
0 0 0 0 485 886 1070 1010 848 793 686 664 645 639 503 215 166 228 97 66 129 132 182 96 58 104 66 48 41 15 0 0 0 0 0 0 47 26 4 0 0 0 13
0 0 0 0 0 277 950 989 915 795 724 712 710 626 627 551 331 213 224 194 192 145 40 7 7 21 54 47 15 19 0 0 0 0 0 0 7 45 37 13 0 0 6
0 0 0 0 0 2 820 743 803 702 540 488 421 407 385 503 485 423 376 211 83 36 26 80 3 0 10 28 27 11 12 0 0 0 0 0 0 3 36 20 16 7 0
1 0 0 0 0 0 334 607 564 509 529 357 267 329 369 335 364 314 267 174 114 100 24 5 36 17 1 9 33 13 0 0 0 0 0 0 0 0 0 10 5 5 0
0 0 0 0 0 109 289 559 514 515 427 453 426 366 285 302 272 274 187 112 167 214 58 0 0 0 3 2 15 15 9 8 0 0 0 0 0 0 0 0 0 5 8
3 0 0 0 0 1 7 278 335 425 514 454 424 356 304 333 271 221 209 197 188 87 40 0 0 0 0 0 3 9 19 10 3 1 0 0 0 0 0 0 0 0 0
5 7 5 0 0 1 5 5 7 4 0 1 1 3 1 2 73 7 72 121 116 25 2 0 0 0 0 22 15 9 13 36 40 2 0 0 0 0 0 0 0 0 0
4 3 4 10 1 0 4 3 2 5 7 8 7 10 13 8 3 3 3 0 0 1 4 2 8 13 20 12 16 5 3 8 0 13 0 0 0 0 0 0 0 0 0
4 4 5 3 1 2 3 4 1 0 4 9 8 2 8 13 10 7 9 7 3 0 1 45 34 32 33 14 18 19 2 3 0 0 0 0 0 0 0 0 0 0 0
2 3 2 2 2 1 0 2 0 1 2 4 3 4 2 4 1 3 6 9 3 0 0 0 1 11 51 19 11 1 5 4 1 1 0 0 0 0 0 0 0 0 0
2 3 3 3 3 1 0 1 0 1 0 4 3 3 2 3 0 2 3 3 5 2 1 2 4 1 1 1 1 3 2 2 0 0 0 0 0 0 0 0 0 1 1
1 3 4 2 2 1 2 1 1 1 2 2 4 4 3 3 1 0 2 2 2 5 4 6 5 6 4 9 11 4 2 1 1 0 0 0 0 0 0 1 2 2 2
0 2 1 1 0 1 1 1 1 1 0 1 1 1 2 2 3 2 0 0 0 2 5 5 4 4 5 5 5 4 2 4 0 1 0 0 0 0 6 5 3 2 1
0 0 0 1 1 0 2 0 1 0 0 0 0 2 0 0 1 3 3 1 0 0 0 0 0 1 0 2 3 0 0 0 0 0 2 0 1 2 12 6 4 3 2
0 0 0 0 0 0 2 2 0 1 1 0 0 0 1 0 0 1 2 5 2 0 0 0 0 0 0 0 0 2 3 1 3 0 2 0 1 1 0 7 2 1 1
CIN
-42 -45 -52 -45 -30 -44 -68 -83 -96 -91 -89 -93 -56 -72 -93 -40 -38 -65 -72 -48 -32 -16 -13 -20 -27 -20 -35 -49 -25 -30 -42 0 0 0 0 -10 -11 -10 -7 -9 -5 -5 -5
-38 -26 -41 -52 -50 -46 -70 -91 -94 -91 -94 -102 -46 -47 -35 -31 -29 -68 -90 -60 -43 -43 -38 -21 -6 -4 -21 -40 -31 -27 -46 -1 0 0 0 -7 -5 -6 -5 -6 -6 -4 -1
-38 -25 -16 -33 -54 -52 -59 -74 -80 -85 -116 -89 -41 -49 -33 -29 -24 -39 -67 -76 0 0 -29 -56 -11 -2 -6 -10 -19 -17 -29 0 0 0 0 -5 -1 -3 -2 -4 -5 -3 -3
-62 -32 -26 -35 -67 -56 -53 -54 -65 -67 -105 -51 -28 -36 -24 -30 -33 -35 -62 -116 -96 -105 0 0 -33 -17 -3 -1 -1 -2 -6 0 -11 -92 0 -1 -1 -2 -2 -4 -5 -3 -3
-30 -49 -26 -39 -54 -43 -43 -47 -50 -54 -56 -30 -29 -30 -28 -19 -25 -39 -61 -81 -144 -141 0 0 0 -27 -9 -1 -2 0 0 -4 -8 -6 -8 0 -3 -3 -4 -5 -4 -3 -3
-7 -30 -36 -34 -39 -29 -38 -44 -38 -43 -39 -32 -23 -24 -25 -27 -33 -27 -38 -61 -70 -73 -24 0 0 0 -4 -10 -4 -3 0 0 -1 -10 0 -9 0 -5 -6 -6 -5 -5 -4
-10 -11 -25 -47 -33 -34 -38 -57 -42 -31 -29 -28 -15 -23 -19 -31 -24 -37 -35 -43 -91 -82 -41 0 0 0 0 0 -24 -2 0 0 0 0 -5 -8 0 0 0 -6 -5 -5 -6
-38 -6 -4 -42 -36 -24 -36 -57 -55 -41 -32 -32 -18 -22 -19 -18 -30 -37 -46 -47 -55 -78 -140 0 0 0 0 0 0 -12 -6 -1 -2 -2 -3 -5 0 0 0 0 -9 -6 -5
-61 -4 -3 -6 -43 -27 -30 -50 -61 -52 -34 -41 -34 -24 -75 -89 -47 -51 -71 -81 -71 -87 -88 -94 -52 0 0 0 0 0 0 0 -5 -2 -2 -6 0 0 0 0 -3 -4 -11
0 -26 -3 -4 -12 -34 -24 -45 -55 -64 -47 -31 -34 -32 -92 -127 -56 -75 -103 -95 -116 -104 -122 -116 -113 -117 0 0 0 0 0 0 0 -3 -1 -2 -6 -25 0 0 0 -6 -1
0 0 0 -42 -1 -22 -22 -37 -38 -48 -63 -45 -41 -46 -84 -122 -183 -8 0 -121 -117 -117 -122 -126 -116 -117 -136 -134 0 0 0 0 0 0 0 -2 -2 -8 -44 0 0 0 -3
0 0 0 0 0 -2 -5 -33 -42 -52 -78 -56 -49 -26 -33 -81 -104 -79 -101 -123 -110 -117 -86 -113 -151 -120 -137 -142 -125 -135 0 0 0 0 0 -1 -1 -3 -10 0 0 0 -30
0 0 0 0 0 -22 -1 -6 -23 -37 -50 -47 -56 -57 -31 -31 -65 -61 -39 -68 -65 -73 -74 -47 -133 -147 -113 -136 -129 -105 0 0 0 0 0 0 -31 -2 -4 -12 -6 0 -6
0 0 0 0 0 -1 -2 -18 -27 -31 -69 -74 -76 -79 -91 -51 -37 -30 -16 -25 -50 -75 -101 -52 -95 0 -114 -126 -122 -123 -110 0 0 0 0 0 0 -25 -8 -13 -13 -30 -1
-4 0 0 0 0 0 -2 -6 -10 -31 -63 -81 -113 -90 -67 -70 -53 -43 -27 -33 -27 -5 -47 -110 -74 -159 -65 -119 -119 -107 0 -1 0 0 0 0 0 0 0 -45 -28 -27 -5
0 0 0 0 0 -2 -2 -1 -9 -18 -53 -38 -63 -63 -66 -56 -54 -35 -35 -37 -22 -4 -7 0 0 0 -114 -32 -82 -100 -104 -133 0 0 0 0 0 0 0 0 -14 -48 -14
0 0 0 0 0 0 -23 -35 -21 -5 -5 -12 -26 -35 -25 -19 -24 -39 -15 -18 -13 -25 -49 0 0 0 0 -29 -110 -100 -70 -88 -72 -64 0 0 0 0 0 0 0 0 -13
0 0 0 0 0 0 0 0 0 0 -12 0 0 -6 0 -4 -56 -1 -31 -6 -26 -33 -57 0 0 0 0 -52 -76 -73 -112 -97 -115 -58 0 0 0 0 0 0 0 0 0
0 0 0 0 0 0 0 0 0 0 0 0 0 0 0 0 0 0 0 0 0 0 -55 -13 -86 -91 -96 -73 -51 -49 -50 -75 0 -120 -29 0 0 0 0 0 0 0 0
0 0 0 0 0 0 0 0 0 0 0 0 0 0 0 0 0 0 0 0 0 0 0 -13 -16 -27 -23 -52 -23 -10 -15 -46 0 0 0 0 0 0 0 0 0 0 0
0 0 0 0 0 0 0 0 0 0 0 0 0 0 0 0 0 0 0 0 0 0 0 0 -2 -1 -5 -8 -1 -3 -4 -17 0 0 0 0 0 0 0 0 0 0 0
0 0 0 0 0 0 0 0 0 0 0 0 0 0 0 0 0 0 0 0 0 0 0 0 0 0 0 0 0 0 0 -9 -1 0 0 0 0 0 0 0 0 0 0
0 0 0 0 0 0 0 0 0 0 0 0 0 0 0 0 0 0 0 0 0 0 0 0 0 0 0 0 0 0 0 0 0 0 0 0 0 0 0 0 0 0 0
0 0 0 0 0 0 0 0 0 0 0 0 0 0 0 0 0 0 0 0 0 0 0 0 0 0 0 0 0 0 0 0 0 0 0 0 0 0 0 0 0 0 0
0 0 0 0 0 0 0 0 0 0 0 0 0 0 0 0 0 0 0 0 0 0 0 0 0 0 0 0 0 0 0 0 0 0 0 0 0 0 0 0 0 0 0
0 0 0 0 0 0 -1 0 0 0 0 0 0 -1 0 0 0 0 0 0 0 0 0 0 0 0 0 0 0 0 0 0 0 0 0 0 0 0 0 0 0 0 0
Wind_Speed
19 18 14 13 13 12 9 7 6 5 4 3 1 1 3 3 4 5 6 9 10 11 11 11 12 16 17 16 15 8 3 2 3 5 7 6 6 5 4 3 1 2 5
23 21 17 14 12 13 13 10 8 7 5 5 4 3 3 2 3 4 5 6 8 9 11 11 11 14 15 14 14 14 15 10 2 5 6 8 8 8 6 4 3 1 1
26 25 22 19 15 14 15 14 11 9 7 6 5 4 2 1 1 2 3 4 6 7 8 10 10 13 11 13 12 8 7 8 6 3 6 8 10 11 11 8 4 4 3
27 27 26 24 18 16 16 15 14 12 10 8 7 6 4 3 1 0 1 2 5 5 8 9 12 11 11 11 10 10 7 7 9 9 3 6 11 11 9 9 8 8 6
33 28 30 28 23 20 18 17 16 14 12 10 8 7 6 5 4 3 1 2 4 5 5 9 11 11 12 11 10 11 11 8 9 9 7 6 5 10 8 9 9 10 9
41 34 31 30 26 24 22 20 17 15 14 12 10 10 9 6 4 3 2 1 2 5 6 6 7 9 11 11 9 9 7 10 10 11 8 7 7 7 11 11 12 12 12
46 40 37 32 31 27 23 21 21 19 19 14 14 16 16 15 8 5 5 3 2 2 3 4 4 3 7 12 11 8 7 9 10 12 10 8 7 7 8 10 15 15 15
46 45 42 38 34 33 29 24 23 24 24 17 18 14 17 17 16 12 7 6 5 3 3 3 3 4 3 5 8 12 10 11 11 11 9 9 8 8 7 9 11 14 19
45 45 46 45 38 37 34 29 25 24 25 23 18 18 18 18 16 15 11 8 7 6 6 4 4 4 3 3 5 9 12 13 14 12 12 10 9 10 10 10 11 14 14
47 45 47 49 45 41 38 34 28 26 25 25 24 20 17 14 16 17 17 13 10 8 7 7 6 5 5 5 5 6 10 14 16 15 13 13 12 12 11 11 13 15 16
50 49 44 49 54 46 42 36 32 29 26 26 25 23 22 18 17 17 18 14 15 12 9 9 8 7 7 6 6 6 10 13 15 17 14 13 14 15 15 13 13 14 19
53 46 45 49 55 46 44 38 35 31 29 27 27 24 24 21 19 19 19 16 13 14 10 10 9 10 9 8 8 7 9 12 13 15 16 15 15 17 17 16 14 15 16
54 48 43 45 56 41 45 41 37 33 30 29 26 27 26 26 24 23 21 19 20 17 16 13 13 13 12 12 11 10 10 11 13 14 16 16 16 17 18 18 19 18 18
49 46 43 44 45 51 49 42 41 36 32 32 31 30 28 27 24 25 26 25 28 24 19 20 18 13 14 14 13 11 11 12 13 15 15 15 17 18 19 20 21 21 20
41 39 38 42 48 52 45 44 44 40 35 33 33 32 31 29 26 26 26 27 26 27 24 21 20 19 22 21 17 16 15 13 14 15 16 17 17 19 21 22 23 23 22
34 36 35 34 33 38 35 40 39 38 35 34 32 32 32 31 28 27 26 25 25 26 28 19 24 26 22 26 28 21 18 15 15 14 17 17 18 18 20 22 24 25 25
19 20 23 23 29 33 27 34 36 35 37 35 33 31 32 31 31 28 27 26 23 23 25 33 25 22 20 17 19 22 22 23 21 17 16 17 18 20 21 21 23 26 27
12 13 10 10 19 25 14 28 25 27 28 26 26 25 27 29 29 29 30 27 25 27 32 43 30 25 16 13 14 18 18 19 22 21 19 18 18 19 21 23 24 24 28
3 3 5 10 15 21 19 13 17 19 20 21 21 21 20 22 25 26 28 26 29 29 22 29 30 24 21 20 21 22 22 19 20 23 24 24 21 19 21 22 24 26 26
9 5 5 7 12 15 8 1 5 10 13 13 15 17 22 25 24 28 27 28 28 29 28 29 30 30 28 28 26 28 30 27 22 22 21 27 24 27 21 21 23 25 26
15 15 11 11 17 23 17 11 7 9 13 7 11 15 14 16 17 21 25 27 28 30 32 33 35 36 35 29 32 31 29 28 27 23 27 23 29 29 27 24 24 23 24
20 22 22 17 25 23 20 15 12 15 15 13 13 16 17 22 23 23 23 23 25 28 31 32 32 35 35 35 37 39 38 34 32 24 27 28 30 34 32 30 32 31 29
25 28 22 25 23 21 22 24 21 18 18 19 19 20 20 23 23 24 24 25 26 27 27 29 32 33 35 36 38 41 37 33 29 29 28 36 32 34 32 33 36 35 34
29 30 26 23 23 25 24 22 21 22 20 21 21 22 22 24 25 25 25 26 28 29 29 29 29 31 32 35 35 35 39 40 39 37 34 39 35 36 33 32 32 33 34
30 29 29 27 27 27 29 28 25 25 25 25 25 26 27 26 27 26 26 26 27 29 29 29 29 29 30 32 34 34 37 38 39 36 35 38 36 38 37 36 34 32 32
29 28 29 30 29 29 30 30 28 28 28 27 27 27 28 27 27 27 26 27 28 30 30 29 29 29 29 30 31 30 33 37 39 40 35 39 39 37 40 35 35 33 32
Wind_Direction
262 263 260 258 261 259 249 244 255 254 253 242 265 70 102 67 73 61 71 112 125 130 132 129 131 139 136 144 149 145 186 247 292 296 289 285 288 292 298 308 345 86 111
259 258 256 250 249 251 254 248 244 244 235 230 227 216 153 78 58 50 55 101 117 125 134 136 137 144 151 148 150 153 156 152 257 290 286 283 283 283 283 276 275 252 129
256 255 255 253 248 247 253 255 251 250 240 234 234 210 231 206 28 52 65 79 107 119 123 135 132 143 146 153 156 150 154 164 160 172 277 279 282 280 280 273 262 262 255
252 252 252 252 247 246 249 252 249 248 244 226 233 218 230 264 291 323 40 91 112 118 142 142 153 151 154 158 158 161 162 174 182 173 210 271 279 279 274 267 264 266 264
250 249 250 250 247 245 247 248 250 245 243 241 238 234 242 261 275 299 162 141 127 124 131 154 161 162 164 166 166 172 178 176 179 175 178 187 247 277 269 265 260 261 260
254 248 248 247 244 245 248 246 246 244 244 236 246 257 264 250 250 247 210 181 139 147 146 148 158 169 174 177 182 181 180 178 180 181 188 199 209 239 266 262 261 260 259
256 251 246 245 243 242 240 240 247 242 246 243 257 267 275 280 263 247 245 250 234 181 165 160 165 176 182 187 190 190 187 182 180 185 190 196 213 222 245 230 258 260 259
258 253 248 244 242 243 243 238 238 247 249 238 250 255 267 275 278 274 255 251 248 265 253 225 195 189 203 205 199 195 198 196 195 197 205 209 209 223 215 219 219 250 260
258 257 247 243 242 242 242 239 236 238 243 245 241 258 263 270 274 280 265 258 253 268 279 259 238 235 228 230 220 207 204 201 201 205 205 214 222 222 218 220 225 210 234
259 258 255 247 243 240 240 239 238 238 239 241 248 247 264 274 274 280 279 271 266 252 263 276 271 262 256 259 232 224 214 210 208 206 210 211 213 210 229 239 229 222 221
257 255 256 256 243 241 239 238 238 236 236 242 241 246 255 265 274 284 286 281 278 272 266 264 267 275 271 262 264 246 216 213 215 212 213 216 214 209 210 223 216 218 218
253 257 259 255 244 241 239 237 237 235 237 241 243 246 246 253 264 275 284 290 286 288 264 272 270 275 278 265 257 249 230 220 218 215 218 220 217 213 211 212 220 216 214
252 255 259 262 250 247 238 238 236 236 236 239 242 246 251 255 265 271 277 284 290 293 295 286 288 287 282 278 272 256 242 231 225 222 222 224 220 219 218 216 213 212 217
250 254 258 258 261 265 233 236 238 239 238 242 247 251 252 256 259 266 272 277 283 288 289 295 296 283 282 276 267 255 254 239 232 225 225 226 226 225 224 220 219 219 219
249 256 260 263 263 259 236 233 238 240 241 246 247 250 254 259 262 267 270 274 277 282 286 293 298 304 288 284 276 278 274 264 238 235 229 227 228 228 226 225 224 222 224
250 254 259 270 280 268 226 229 236 240 242 244 247 250 254 260 262 266 269 271 274 279 283 291 299 310 293 286 283 282 280 267 261 253 233 235 236 236 235 233 230 228 227
251 254 254 265 281 276 247 227 233 239 242 246 249 251 255 259 262 265 269 269 274 276 279 294 298 310 302 293 284 289 288 285 284 271 256 250 246 243 242 240 237 233 229
255 251 271 304 296 277 278 224 237 238 241 246 254 252 258 263 263 270 273 275 276 282 281 275 295 302 297 287 279 285 280 280 282 280 272 263 258 258 252 246 241 239 235
1 279 275 301 338 334 271 242 241 249 240 248 255 262 266 264 267 274 278 281 286 281 283 285 290 297 298 295 296 291 289 281 279 282 281 281 276 259 255 257 245 241 243
33 42 12 335 336 326 342 265 244 277 267 254 270 273 283 272 272 280 281 285 286 288 290 289 288 291 293 295 293 293 291 287 280 283 280 285 285 285 272 261 255 244 247
40 34 11 345 352 349 319 318 341 318 304 304 305 281 294 301 293 298 289 293 293 291 292 292 291 292 293 294 295 294 290 290 285 281 287 285 288 290 287 279 274 261 258
35 32 25 15 7 350 341 323 311 313 333 310 307 295 303 313 308 312 307 306 307 299 296 294 294 293 292 296 298 294 293 290 288 287 283 285 292 291 289 287 289 284 279
26 27 22 17 14 3 4 11 4 349 344 339 338 323 322 320 315 304 317 311 314 313 309 303 297 298 296 297 297 294 295 293 292 294 289 289 293 290 292 289 289 287 284
26 28 25 16 13 8 6 1 355 359 354 348 345 339 335 334 332 324 322 317 314 313 312 310 306 304 303 301 299 296 292 291 291 289 292 289 291 291 292 292 292 289 286
24 21 22 16 10 3 3 3 358 0 3 356 354 354 351 343 339 332 328 323 320 321 320 317 313 311 310 307 306 302 296 292 290 291 292 289 290 290 290 288 290 291 290
20 15 14 11 4 358 357 358 354 353 352 347 347 347 347 344 340 339 335 329 325 323 323 323 323 319 317 313 314 310 303 295 291 291 296 289 290 290 286 289 288 290 291